Location: USNO
(38.9242°N, 77.0663°W)
Time: 12:21:05
(UTC-05:00)

OTV 5 (USA 277) - Pass Details

Date: 16 October 2017
Orbit: 404 x 417 km, 43.0° (Epoch: 07 September)

Event Time Altitude Azimuth Distance (km) Brightness Sun altitude
Rises 19:27:57 0° 281° (W) 2,353 ? -12.4°
Reaches altitude 10° 19:30:09 10° 289° (WNW) 1,491 ? -12.9°
Maximum altitude 19:33:20 39° 0° (N) 642 ? -13.5°
Enters shadow 19:35:01 22° 56° (ENE) 953 ? -13.8°
